Home > Weather > Ballia > Past weeks

Flag for India Past Weather in Ballia, Uttar Pradesh, India — Yesterday and Last 2 Weeks

Now
93 °F

Partly sunny.


Feels Like: 117 °F
Forecast: 79 / 92 °F
Wind: 5 mph from East

Location: Patna Airport

Current Time: Jul 29, 2016 at 3:43:19 PM

Latest Report: Jul 29, 2016 at 3:00 PM


Visibility: 3 mi

Pressure: 29.56 "Hg

Humidity: 71%

Dew Point: 82 °F

Location of BalliaLocation

Past Weather in Ballia — Graph

°F

Ballia Temperature Yesterday

Maximum temperature yesterday: 93 °F (at 11:30 AM)
Minimum temperature yesterday: 79 °F (at 6:30 PM)
Average temperature yesterday: 84 °F

High & Low Weather Summary for the Past Weeks

 TemperatureHumidityPressure
High102 °F (Jul 26, 8:00 PM)100% (Jul 17, 8:00 AM)29.71 "Hg (Jul 17, 8:00 AM)
Low77 °F (Jul 29, 5:30 AM)45% (Jul 26, 8:00 PM)29.39 "Hg (Jul 14, 4:30 PM)
Average86 °F83%29.57 "Hg
* Reported Jul 14 1:30 PM — Jul 29 2:00 PM, Ballia, Weather by CustomWeather, © 2016

Note: Actual official high and low records may vary slightly from our data, if they occured in-between our weather recording intervals... More about our weather records

Advertising

Ballia Weather History for the Previous 24 Hours

Scroll right to see more
 ConditionsComfort  
Time TempWeatherWind HumidityBarometerVisibility
2:00 PM
Fri, Jul 29
91 °FBroken clouds.6 mph71%29.56 "Hg3 mi
1:30 PM90 °FBroken clouds.6 mph75%29.65 "Hg2 mi
1:00 PM88 °FBroken clouds.6 mph79%29.65 "Hg2 mi
12:30 PM88 °FBroken clouds.6 mph79%29.65 "Hg2 mi
12:00 PM86 °FBroken clouds.5 mph84%29.65 "Hg2 mi
11:30 AM86 °FBroken clouds.3 mph84%29.65 "Hg2 mi
10:30 AM82 °FBroken clouds.6 mph89%29.65 "Hg1 mi
10:00 AM82 °FBroken clouds.6 mph89%29.65 "Hg1 mi
9:30 AM82 °FBroken clouds.2 mph84%29.65 "Hg1 mi
9:00 AM81 °FBroken clouds.3 mph89%29.65 "Hg1 mi
8:30 AM81 °FMore clouds than sun.2 mph94%29.65 "Hg1 mi
8:00 AM79 °FLight rain. More clouds than sun.2 mph94%29.65 "Hg1 mi
7:30 AM77 °FMore clouds than sun.2 mph100%29.65 "Hg1 mi
7:00 AM77 °FLight rain. More clouds than sun.3 mph100%29.65 "Hg1 mi
5:30 AM77 °FLight rain. Mostly cloudy.3 mph100%29.65 "Hg1 mi
9:00 PM
Thu, Jul 28
79 °FLight rain. Mostly cloudy.2 mph100%29.62 "Hg1 mi
8:30 PM79 °FLight rain. Mostly cloudy.5 mph100%29.62 "Hg1 mi
8:00 PM79 °FLight rain. Mostly cloudy.3 mph100%29.62 "Hg1 mi
7:30 PM79 °FLight rain. Mostly cloudy.2 mph100%29.59 "Hg1 mi
7:00 PM79 °FLight rain. More clouds than sun.2 mph94%29.56 "Hg1 mi
6:30 PM79 °FLight rain. More clouds than sun.3 mph100%29.56 "Hg1 mi
6:00 PM81 °FLight rain. More clouds than sun.3 mph94%29.56 "Hg1 mi
5:30 PM81 °FLight rain. More clouds than sun.5 mph94%29.56 "Hg1 mi
4:30 PM81 °FThunderstorms. More clouds than sun.6 mph100%29.59 "Hg1 mi
4:00 PM81 °FThunderstorms. More clouds than sun.6 mph100%29.59 "Hg1 mi
3:30 PM81 °FThunderstorms. More clouds than sun.6 mph100%29.59 "Hg1 mi
3:00 PM81 °FThunderstorms. More clouds than sun.12 mph100%29.59 "Hg1 mi
Weather by CustomWeather, © 2016

See weather overviewHow to use our weather pages